Content
SEND FEEDBACK

Daily
Averages
Monthly
Summary
United States of America

ST. LOUIS, MISSOURI


Home > North America > United States > Missouri
Elevation: 163 meters     Latitude: 38 45N     Longitude: 090 22W

WEATHER
 
SELECT A DAY
Number of Records: 196,318;   Date Range: 1/1/95 - 7/23/14
 
SHARE

PRINT THIS DATA

[ ← Previous Day ]
WEATHER ALMANAC - 27 MARCH, 2013
[ Next Day → ]
[ °F ]   °C
Weather ElementAverageHighLow
Temperature1.1 °C8.3 °C (3:54 pm)-7.2 °C (6:54 am)
Dewpoint-5.1 °C-0.6 °C (10:54 pm)-8.9 °C (5:54 am)
Humidity67.1 %92 % (7:54 am)34 % (3:54 pm)
Barometer1028.8 hPa1030.5 hPa (9:54 am)1026.8 hPa (7:54 pm)
Wind Speed2.6 km/h11.1 km/h (6:54 pm)
Weather ElementAverage
Visibility16.1 km
Wind DirectionNE (46.1 °)

Weather ElementTotal
Precipitation---
Heating Degree Days17.8 (Base 18.3)
Averaged from 23 records on 27 March, 2013
WEATHER CONDITIONS BREAKOUT
WIND DIRECTION BREAKOUT
WEATHER BY HOUR - 27 MARCH, 2013
[ °F ]   °C
Local TimeTemperatureDewpointHumidityBarometerVisibilityWind DirectionWind SpeedGust SpeedPrecipitationEventsConditions
1:54 AM-5 °C-7.2 °C85 %1029.1 hPa16.1 kmCalmClear
2:54 AM-5.6 °C-7.2 °C89 %1028.8 hPa16.1 kmCalmClear
3:54 AM-6.1 °C-7.8 °C88 %1028.4 hPa16.1 kmCalmClear
4:54 AM-6.1 °C-7.8 °C88 %1029.1 hPa16.1 kmCalmClear
5:54 AM-6.7 °C-8.9 °C85 %1029.1 hPa16.1 kmCalmClear
6:54 AM-7.2 °C-8.9 °C88 %1029.5 hPa16.1 kmCalmScattered Clouds
7:54 AM-6.1 °C-7.2 °C92 %1030.1 hPa16.1 kmCalmScattered Clouds
8:54 AM-3.9 °C-5.6 °C88 %1030.1 hPa16.1 kmCalmPartly Cloudy
9:54 AM0 °C-3.3 °C79 %1030.5 hPa16.1 kmCalmPartly Cloudy
10:54 AM3.9 °C-5 °C53 %1030.1 hPa16.1 kmNorth (360°)5.6 km/hPartly Cloudy
11:54 AM4.4 °C-5 °C51 %1030.1 hPa16.1 kmCalmScattered Clouds
12:54 PM5 °C-5 °C49 %1030.1 hPa16.1 kmCalmScattered Clouds
1:54 PM6.1 °C-5 °C45 %1029.5 hPa16.1 kmVariable5.6 km/hMostly Cloudy
2:54 PM7.2 °C-5.6 °C40 %1028.4 hPa16.1 kmWNW (290°)9.3 km/hMostly Cloudy
3:54 PM8.3 °C-6.7 °C34 %1027.4 hPa16.1 kmCalmMostly Cloudy
4:54 PM7.8 °C-6.1 °C37 %1027.1 hPa16.1 kmCalmMostly Cloudy
5:54 PM6.1 °C-3.3 °C51 %1027.1 hPa16.1 kmEast (80°)7.4 km/hMostly Cloudy
6:54 PM4.4 °C-2.8 °C60 %1027.1 hPa16.1 kmENE (60°)11.1 km/hOvercast
7:54 PM4.4 °C-2.2 °C63 %1026.8 hPa16.1 kmEast (100°)5.6 km/hOvercast
8:54 PM3.9 °C-2.2 °C65 %1027.4 hPa16.1 kmCalmMostly Cloudy
9:54 PM3.3 °C-2.2 °C68 %1027.8 hPa16.1 kmEast (80°)7.4 km/hOvercast
10:54 PM3.3 °C-0.6 °C76 %1027.8 hPa16.1 kmCalmOvercast
11:54 PM3.3 °C-1.7 °C70 %1027.8 hPa16.1 kmEast (90°)7.4 km/h0 mmOvercast
Hourly data recorded from KSUS, located 0 kilometers away from St. Louis, Missouri







STORIES FROM OUR PARTNERS